Tracking 31011 objects as of 12-Jul-2025
HD Live streaming from Space Station
objects crossing your sky now

STARLINK-30178

Track STARLINK-30178 now!
10-day predictions
STARLINK-30178 is classified as:


NORAD ID: 57447
Int'l Code: 2023-105T
Perigee: 565.6 km
Apogee: 566.9 km
Inclination: 43.0 °
Period: 95.8 minutes
Semi major axis: 6937 km
RCS: Unknown
Launch date: July 24, 2023
Source: United States (US)
Launch site: AIR FORCE EASTERN TEST RANGE (AFETR)
Your satellite tracking list
Your tracking list is empty




NASA's NSSDC Master Catalog

Two Line Element Set (TLE):
1 57447U 23105T   25192.51843516  .00000204  00000-0  30177-4 0  9998
2 57447  43.0025 131.9806 0000940 270.9066  89.1668 15.02533138109283
Source of the keplerian elements: AFSPC